Flag for Australia Weather past 2 weeks in Alice Springs, Northern Territory, Australia

Now
63 °F

Passing clouds.


Feels Like: 63 °F
Forecast: 43 / 70 °F
Wind: 13 mph from South

Location: Alice Springs Aerodrome

Current Time: Apr 25, 2015 at 11:50:28 AM

Latest Report: Apr 25, 2015 at 11:30 AM


Visibility: N/A

Pressure: 30.21 "Hg

Humidity: 34%

Dew point: 34 °F

Location of Alice SpringsLocation

Historic Weather in Alice Springs — Graph

°F

Alice Springs temperature yesterday

Maximum temperature yesterday: 79 °F (at 1:30 PM)
Minimum temperature yesterday: 54 °F (at 11:30 PM)
Average temperature yesterday: 65 °F

Past Weeks' High & Low Weather Summary

 TemperatureHumidityPressure
High100 °F (Apr 15, 4:00 PM)100% (Apr 19, 1:30 AM)30.39 "Hg (Apr 19, 1:30 AM)
Low43 °F (Apr 22, 5:30 AM)6% (Apr 15, 2:30 PM)29.89 "Hg (Apr 13, 3:00 PM)
Average67 °F37%30.11 "Hg
* Reported Apr 10 10:30 AM — Apr 25 10:30 AM, Alice Springs, Weather by CustomWeather, © 2015

Note: Actual official high and low records may vary slightly from our data, if they occured in-between our weather recording intervals... More about our weather records

Advertising

Alice Springs weather history for previous 24 hours

 ConditionsComfort  
Time TempWeatherWind HumidityBarometerVisibility
10:30 AM
Sat, Apr 25
61 °FSunny.13 mph36%30.24 "Hg10 mi
10:00 AM59 °FSunny.12 mph39%30.24 "Hg10 mi
9:30 AM59 °FSunny.13 mph42%30.24 "Hg10 mi
8:30 AM55 °FSunny.12 mph44%30.24 "Hg10 mi
8:00 AM52 °FSunny.3 mph58%30.21 "Hg10 mi
7:30 AM48 °FSunny.3 mph66%30.21 "Hg10 mi
7:00 AM46 °FSunny.8 mph71%30.18 "Hg10 mi
6:30 AM46 °FSunny.8 mph71%30.18 "Hg10 mi
6:00 AM48 °FClear.8 mph66%30.15 "Hg10 mi
5:30 AM50 °FClear.6 mph62%30.15 "HgN/A
5:00 AM50 °FClear.7 mph62%30.15 "HgN/A
4:30 AM52 °FClear.6 mph62%30.15 "HgN/A
4:00 AM54 °FClear.8 mph54%30.12 "HgN/A
3:30 AM54 °FClear.6 mph54%30.12 "HgN/A
3:00 AM52 °FClear.6 mph58%30.12 "HgN/A
2:30 AM55 °FClear.6 mph51%30.12 "HgN/A
2:00 AM57 °FClear.7 mph48%30.12 "HgN/A
1:30 AM57 °FClear.6 mph51%30.12 "HgN/A
1:00 AM61 °FClear.8 mph42%30.09 "HgN/A
12:30 AM63 °FClear.10 mph37%30.09 "HgN/A
12:00 AM61 °FClear.9 mph34%30.09 "HgN/A
11:30 PM
Fri, Apr 24
54 °FClear.6 mph58%30.09 "HgN/A
11:00 PM57 °FClear.No wind48%30.07 "HgN/A
10:30 PM57 °FClear.No wind44%30.07 "HgN/A
10:00 PM59 °FClear.1 mph42%30.07 "HgN/A
9:30 PM61 °FClear.6 mph42%30.07 "HgN/A
9:00 PM63 °FClear.7 mph37%30.07 "HgN/A
8:30 PM64 °FClear.7 mph32%30.07 "HgN/A
8:00 PM64 °FClear.6 mph40%30.04 "HgN/A
7:30 PM66 °FClear.6 mph30%30.04 "HgN/A
7:00 PM66 °FClear.6 mph30%30.01 "HgN/A
6:30 PM70 °FClear.8 mph23%30.01 "HgN/A
6:00 PM73 °FClear.8 mph17%30.01 "HgN/A
5:30 PM75 °FSunny.15 mph15%29.98 "HgN/A
5:00 PM77 °FSunny.14 mph13%29.98 "Hg10 mi
4:30 PM77 °FSunny.14 mph13%29.98 "Hg10 mi
4:00 PM79 °FSunny.14 mph13%29.98 "Hg10 mi
3:30 PM79 °FSunny.13 mph13%29.98 "Hg10 mi
3:00 PM77 °FSunny.15 mph14%29.98 "Hg10 mi
2:30 PM77 °FSunny.12 mph17%29.98 "Hg10 mi
2:00 PM79 °FPassing clouds.14 mph15%29.98 "HgN/A
1:30 PM79 °FPassing clouds.9 mph15%30.01 "HgN/A
12:00 PM73 °FPassing clouds.15 mph17%30.04 "HgN/A
11:30 AM73 °FSunny.13 mph19%30.07 "Hg10 mi
Weather by CustomWeather, © 2015

See weather overviewHow to use our weather pages